When you browse on this site, cookies collect data to enhance your experience and personalize the content and advertising you see.
Visit our Privacy Policy to learn more. By continuing to use the site, you agree to this use of cookies and data.
  • en Suisse
  • Liste des pays
  • À 7 jours
  • Température de l'eau
  • Carte météo
  • Widgets météo
  • user-avatar
    Se connecter

    Météo par heure à Soshihino

    Ce jour, 23 Novembre, Samedi

    Heure Température Précipitation Vent Pression Humidité
    00:00 -7°C° 0 mm 4 m/s 769 mmHg 37%
    01:00 -7°C° 0 mm 4 m/s 769 mmHg 38%
    02:00 -7°C° 0 mm 4 m/s 769 mmHg 38%
    03:00 -7°C° 0 mm 4 m/s 768 mmHg 40%
    04:00 -7°C° 0 mm 3 m/s 768 mmHg 41%
    05:00 -7°C° 0 mm 3 m/s 768 mmHg 42%
    06:00 -7°C° 0 mm 3 m/s 768 mmHg 43%
    07:00 -7°C° 0 mm 3 m/s 768 mmHg 43%
    08:00 -7°C° 0 mm 3 m/s 768 mmHg 44%
    09:00 -7°C° 0 mm 3 m/s 768 mmHg 42%
    10:00 -6°C° 0 mm 3 m/s 767 mmHg 40%
    11:00 -7°C° 0 mm 4 m/s 767 mmHg 39%
    12:00 -7°C° 0 mm 4 m/s 767 mmHg 38%
    13:00 -5°C° 0 mm 3 m/s 767 mmHg 37%
    14:00 -5°C° 0 mm 3 m/s 767 mmHg 37%
    15:00 -5°C° 0 mm 3 m/s 766 mmHg 37%
    16:00 -5°C° 0 mm 3 m/s 766 mmHg 38%
    17:00 -6°C° 0 mm 3 m/s 766 mmHg 38%
    18:00 -5°C° 0 mm 3 m/s 766 mmHg 37%
    19:00 -5°C° 0 mm 3 m/s 766 mmHg 36%
    20:00 -5°C° 0 mm 3 m/s 766 mmHg 36%
    21:00 -5°C° 0 mm 3 m/s 766 mmHg 36%
    22:00 -5°C° 0 mm 3 m/s 765 mmHg 35%
    23:00 -5°C° 0 mm 3 m/s 765 mmHg 35%

    Demain, 24 Novembre, Dimanche

    Heure Température Précipitation Vent Pression Humidité
    00:00 -5°C° 0 mm 3 m/s 765 mmHg 36%
    01:00 -5°C° 0 mm 3 m/s 765 mmHg 36%
    02:00 -5°C° 0 mm 3 m/s 766 mmHg 37%
    03:00 -5°C° 0 mm 3 m/s 765 mmHg 37%
    04:00 -5°C° 0 mm 3 m/s 765 mmHg 37%
    05:00 -5°C° 0 mm 3 m/s 764 mmHg 37%
    06:00 -5°C° 0 mm 3 m/s 764 mmHg 38%
    07:00 -5°C° 0 mm 3 m/s 764 mmHg 38%
    08:00 -5°C° 0 mm 3 m/s 765 mmHg 39%
    09:00 -5°C° 0 mm 3 m/s 764 mmHg 38%
    10:00 -5°C° 0 mm 3 m/s 764 mmHg 38%
    11:00 -5°C° 0 mm 3 m/s 764 mmHg 37%
    12:00 -5°C° 0 mm 3 m/s 764 mmHg 37%
    13:00 -4°C° 0 mm 3 m/s 764 mmHg 37%
    14:00 -4°C° 0 mm 3 m/s 764 mmHg 37%
    15:00 -3°C° 0 mm 2 m/s 763 mmHg 38%
    16:00 -4°C° 0 mm 2 m/s 763 mmHg 39%
    17:00 -4°C° 0 mm 2 m/s 763 mmHg 41%
    18:00 -4°C° 0 mm 2 m/s 763 mmHg 41%
    19:00 -4°C° 0 mm 2 m/s 763 mmHg 41%
    20:00 -4°C° 0 mm 2 m/s 763 mmHg 42%
    21:00 -4°C° 0 mm 2 m/s 762 mmHg 42%
    22:00 -5°C° 0 mm 2 m/s 762 mmHg 42%
    23:00 -5°C° 0 mm 2 m/s 762 mmHg 42%

    Après-demain, 25 Novembre, Lundi

    Heure Température Précipitation Vent Pression Humidité
    00:00 -5°C° 0 mm 2 m/s 762 mmHg 43%
    01:00 -5°C° 0 mm 2 m/s 762 mmHg 43%
    02:00 -5°C° 0 mm 2 m/s 762 mmHg 43%
    03:00 -5°C° 0 mm 2 m/s 761 mmHg 44%
    04:00 -5°C° 0 mm 2 m/s 761 mmHg 45%
    05:00 -5°C° 0 mm 2 m/s 761 mmHg 46%
    06:00 -5°C° 0 mm 2 m/s 761 mmHg 47%
    07:00 -5°C° 0 mm 2 m/s 761 mmHg 48%
    08:00 -5°C° 0 mm 2 m/s 760 mmHg 49%
    09:00 -5°C° 0 mm 2 m/s 760 mmHg 48%
    10:00 -5°C° 0 mm 2 m/s 760 mmHg 47%
    11:00 -4°C° 0 mm 2 m/s 760 mmHg 45%
    12:00 -4°C° 0 mm 2 m/s 760 mmHg 46%
    13:00 -4°C° 0 mm 2 m/s 760 mmHg 47%
    14:00 -4°C° 0 mm 2 m/s 760 mmHg 47%
    15:00 -4°C° 0 mm 2 m/s 760 mmHg 51%
    16:00 -3°C° 0 mm 1 m/s 759 mmHg 54%
    17:00 -3°C° 0 mm 1 m/s 759 mmHg 58%
    18:00 -3°C° 0 mm 1 m/s 759 mmHg 59%
    19:00 -3°C° 0 mm 1 m/s 759 mmHg 60%
    20:00 -6°C° 0 mm 2 m/s 759 mmHg 62%
    21:00 -4°C° 0 mm 1 m/s 759 mmHg 64%
    22:00 -4°C° 0 mm 1 m/s 758 mmHg 65%
    23:00 -4°C° 0 mm 1 m/s 758 mmHg 67%

    26 Novembre, Mardi

    Heure Température Précipitation Vent Pression Humidité
    00:00 -4°C° 0 mm 1 m/s 758 mmHg 69%
    01:00 -4°C° 0 mm 1 m/s 758 mmHg 70%
    02:00 -4°C° 0 mm 1 m/s 758 mmHg 72%
    03:00 -4°C° 0 mm 1 m/s 757 mmHg 76%
    04:00 -3°C° 0 mm 1 m/s 757 mmHg 79%
    05:00 -5°C° 0 mm 2 m/s 757 mmHg 83%
    06:00 -5°C° 0 mm 2 m/s 757 mmHg 85%
    07:00 -3°C° 0 mm 1 m/s 757 mmHg 87%
    08:00 -2°C° 0 mm 1 m/s 756 mmHg 89%
    09:00 -4°C° 0 mm 2 m/s 756 mmHg 89%
    10:00 -4°C° 0 mm 2 m/s 756 mmHg 88%
    11:00 -3°C° 0 mm 2 m/s 756 mmHg 88%
    12:00 -3°C° 0 mm 2 m/s 756 mmHg 88%
    13:00 -3°C° 0 mm 2 m/s 755 mmHg 87%
    14:00 -3°C° 0 mm 2 m/s 755 mmHg 86%
    15:00 -3°C° 0 mm 2 m/s 755 mmHg 85%
    16:00 -3°C° 0 mm 2 m/s 755 mmHg 83%
    17:00 -3°C° 0 mm 2 m/s 755 mmHg 82%
    18:00 -3°C° 0 mm 2 m/s 754 mmHg 80%
    19:00 -2°C° 0 mm 2 m/s 754 mmHg 78%
    20:00 -2°C° 0 mm 2 m/s 754 mmHg 76%
    21:00 -2°C° 0 mm 2 m/s 754 mmHg 76%
    22:00 -2°C° 0 mm 2 m/s 754 mmHg 77%
    23:00 -2°C° 0 mm 2 m/s 754 mmHg 77%

    27 Novembre, Mercredi

    Heure Température Précipitation Vent Pression Humidité
    00:00 -2°C° 0 mm 2 m/s 754 mmHg 78%
    01:00 -2°C° 0 mm 2 m/s 753 mmHg 79%
    02:00 -2°C° 0 mm 2 m/s 753 mmHg 80%
    03:00 -3°C° 0 mm 2 m/s 753 mmHg 81%
    04:00 -3°C° 0 mm 2 m/s 753 mmHg 83%
    05:00 -3°C° 0 mm 2 m/s 752 mmHg 84%
    06:00 -3°C° 0 mm 2 m/s 752 mmHg 86%
    07:00 -3°C° 0 mm 2 m/s 752 mmHg 88%
    08:00 -4°C° 0 mm 2 m/s 752 mmHg 90%
    09:00 -3°C° 0 mm 2 m/s 752 mmHg 89%
    10:00 -3°C° 0 mm 2 m/s 752 mmHg 87%
    11:00 -2°C° 0 mm 2 m/s 752 mmHg 85%
    12:00 -2°C° 0 mm 2 m/s 752 mmHg 87%
    13:00 -2°C° 0 mm 3 m/s 751 mmHg 88%
    14:00 -2°C° 0 mm 3 m/s 751 mmHg 89%
    15:00 -2°C° 0 mm 3 m/s 751 mmHg 90%
    16:00 -2°C° 0 mm 3 m/s 751 mmHg 90%
    17:00 -2°C° 0 mm 3 m/s 751 mmHg 91%
    18:00 -1°C° 0 mm 3 m/s 750 mmHg 90%
    19:00 -1°C° 0 mm 3 m/s 750 mmHg 90%
    20:00 -1°C° 0 mm 3 m/s 750 mmHg 90%
    21:00 -1°C° 0 mm 3 m/s 750 mmHg 91%
    22:00 -1°C° 0 mm 3 m/s 749 mmHg 91%
    23:00 -1°C° 0 mm 3 m/s 749 mmHg 92%

    28 Novembre, Jeudi

    Heure Température Précipitation Vent Pression Humidité
    00:00 -1°C° 0 mm 3 m/s 749 mmHg 91%
    01:00 -2°C° 0 mm 4 m/s 749 mmHg 90%
    02:00 -2°C° 0 mm 4 m/s 748 mmHg 89%
    03:00 -2°C° 0 mm 4 m/s 748 mmHg 89%
    04:00 -2°C° 0 mm 4 m/s 748 mmHg 89%
    05:00 -2°C° 0 mm 4 m/s 747 mmHg 89%
    06:00 -2°C° 0 mm 4 m/s 747 mmHg 89%
    07:00 -2°C° 0 mm 4 m/s 747 mmHg 89%
    08:00 -1°C° 0 mm 4 m/s 746 mmHg 89%
    09:00 -1°C° 0 mm 4 m/s 746 mmHg 88%
    10:00 -1°C° 0 mm 5 m/s 746 mmHg 87%
    11:00 0°C° 0 mm 5 m/s 746 mmHg 86%
    12:00 0°C° 0 mm 4 m/s 745 mmHg 86%
    13:00 0°C° 0 mm 4 m/s 745 mmHg 85%
    14:00 0°C° 0 mm 4 m/s 744 mmHg 85%
    15:00 0°C° 0.1 mm 4 m/s 744 mmHg 86%
    16:00 0°C° 0.1 mm 5 m/s 744 mmHg 87%
    17:00 0°C° 0.1 mm 5 m/s 743 mmHg 89%
    18:00 0°C° 0.2 mm 5 m/s 743 mmHg 89%
    19:00 0°C° 0.2 mm 5 m/s 743 mmHg 89%
    20:00 0°C° 0.2 mm 5 m/s 742 mmHg 89%
    21:00 0°C° 0.4 mm 4 m/s 742 mmHg 91%
    22:00 0°C° 0.4 mm 4 m/s 742 mmHg 92%
    23:00 0°C° 0.4 mm 4 m/s 742 mmHg 93%
    Voir plus